📊 Raw Sensor Data
Showing records 43601 to 43625 of 85,020 total
| ID | Distance (ft) | Battery V | Battery A | Int Temp (°F) | Int Humid (%) | Ext Temp (°F) | Solar V | RSSI | SNR | Time Stamp |
|---|---|---|---|---|---|---|---|---|---|---|
| 41432 | 15.7 | 4.00 | 0 | 86 | 41 | 75 | 5.10 | -68 | 7 | 05/23/2025 02:15 PM |
| 41431 | 15.8 | 3.94 | 0 | 86 | 40 | 78 | 5.10 | -68 | 8 | 05/23/2025 02:00 PM |
| 41430 | 15.7 | 3.94 | 0 | 83 | 41 | 78 | 5.10 | -68 | 7 | 05/23/2025 01:30 PM |
| 41429 | 15.7 | 3.94 | 0 | 83 | 40 | 78 | 5.10 | -68 | 8 | 05/23/2025 01:15 PM |
| 41428 | 15.7 | 3.96 | 0 | 80 | 41 | 76 | 5.10 | -68 | 7 | 05/23/2025 01:00 PM |
| 41427 | 15.7 | 4.10 | 0 | 76 | 42 | 72 | 5.10 | -68 | 7 | 05/23/2025 12:30 PM |
| 41426 | 15.7 | 3.94 | 0 | 76 | 42 | 70 | 5.10 | -68 | 7 | 05/23/2025 12:15 PM |
| 41425 | 15.7 | 4.01 | 0 | 74 | 42 | 73 | 5.10 | -68 | 7 | 05/23/2025 12:00 PM |
| 41424 | 15.7 | 3.94 | 0 | 74 | 42 | 70 | 5.10 | -69 | 7 | 05/23/2025 11:45 AM |
| 41423 | 15.7 | 4.12 | 0 | 73 | 42 | 77 | 5.10 | -69 | 8 | 05/23/2025 11:30 AM |
| 41422 | 15.7 | 3.94 | 0 | 71 | 41 | 70 | 5.10 | -68 | 8 | 05/23/2025 11:00 AM |
| 41421 | 15.7 | 4.02 | 0 | 70 | 41 | 70 | 5.10 | -70 | 8 | 05/23/2025 10:45 AM |
| 41420 | 15.7 | 3.94 | 0 | 68 | 41 | 71 | 5.10 | -67 | 7 | 05/23/2025 10:30 AM |
| 41419 | 15.7 | 3.93 | 0 | 67 | 41 | 68 | 5.10 | -68 | 7 | 05/23/2025 10:15 AM |
| 41418 | 15.7 | 3.98 | 0 | 66 | 42 | 69 | 5.10 | -68 | 7 | 05/23/2025 10:00 AM |
| 41417 | 15.7 | 3.93 | 0 | 64 | 42 | 63 | 5.10 | -69 | 7 | 05/23/2025 09:45 AM |
| 41416 | 15.7 | 3.93 | 0 | 64 | 42 | 63 | 5.10 | -68 | 7 | 05/23/2025 09:30 AM |
| 41415 | 15.6 | 3.93 | 0 | 63 | 42 | 64 | 5.10 | -67 | 8 | 05/23/2025 09:15 AM |
| 41414 | 15.7 | 3.93 | 0 | 62 | 42 | 65 | 5.10 | -68 | 8 | 05/23/2025 09:00 AM |
| 41413 | 15.7 | 4.06 | 0 | 62 | 42 | 62 | 5.10 | -68 | 8 | 05/23/2025 08:45 AM |
| 41412 | 15.7 | 3.93 | 0 | 61 | 42 | 65 | 5.10 | -66 | 8 | 05/23/2025 08:30 AM |
| 41411 | 15.7 | 3.93 | 0 | 60 | 41 | 63 | 5.10 | -67 | 8 | 05/23/2025 08:15 AM |
| 41410 | 15.6 | 3.93 | 0 | 59 | 40 | 65 | 5.10 | -69 | 7 | 05/23/2025 08:00 AM |
| 41409 | 15.6 | 4.03 | 5 | 57 | 40 | 62 | 5.10 | -70 | 8 | 05/23/2025 07:45 AM |
| 41408 | 15.5 | 4.03 | 28 | 54 | 40 | 58 | 4.50 | -68 | 8 | 05/23/2025 07:30 AM |